Flag for U.S.A. Weather past 2 weeks in Worcester, Massachusetts, U.S.A.

Now
57 °F

Low clouds.


Feels Like: 55 °F
Forecast: 59 / 72 °F
Wind: 9 mph from Northeast

Location: Worcester Regional Airport

Current Time: Aug 23, 2014 at 7:33:53 AM

Latest Report: Aug 23, 2014 at 6:54 AM


Visibility: 10 mi

Pressure: 30.13 "Hg

Humidity: 93%

Dew point: 55 °F

Location of WorcesterLocation

Historic Weather in Worcester — Graph

°F

Worcester temperature yesterday

Maximum temperature yesterday: 68 °F (at 2:54 PM)
Minimum temperature yesterday: 58 °F (at 12:54 AM)
Average temperature yesterday: 62 °F

Past Weeks' High & Low Weather Summary

 TemperatureHumidityPressure
High81 °F (Aug 10, 2:54 PM)100% (Aug 13, 6:54 AM)30.17 "Hg (Aug 13, 6:54 AM)
Low54 °F (Aug 15, 4:54 AM)34% (Aug 10, 3:54 PM)29.64 "Hg (Aug 13, 4:54 PM)
Average66 °F69%29.99 "Hg
* Reported Aug 8 5:54 AM — Aug 23 5:54 AM, Worcester, Weather by CustomWeather, © 2014

Note: Actual official high and low records may vary slightly from our data, if they occured in-between our weather recording intervals... More about our weather records

Advertising

Worcester weather history for previous 24 hours

 ConditionsComfort  
Time TempWeatherWind HumidityBarometerVisibility
5:54 AM
Aug 23
57 °FLow clouds.7 mph96%30.12 "Hg10 mi
4:54 AM58 °FLow clouds.8 mph93%30.10 "Hg10 mi
3:54 AM59 °FLow clouds.6 mph93%30.10 "Hg10 mi
2:54 AM59 °FLow clouds.7 mph93%30.11 "Hg10 mi
1:54 AM60 °FLow clouds.5 mph93%30.11 "Hg10 mi
12:54 AM60 °FLow clouds.7 mph93%30.12 "Hg10 mi
11:54 PM
Aug 22
61 °FMostly cloudy.6 mph90%30.12 "Hg10 mi
10:54 PM61 °FMostly cloudy.7 mph90%30.12 "Hg10 mi
9:54 PM62 °FOvercast.3 mph93%30.12 "Hg10 mi
9:04 PM62 °FLow clouds.7 mph93%30.12 "Hg10 mi
8:54 PM63 °FMostly cloudy.6 mph90%30.12 "Hg10 mi
7:54 PM64 °FMostly cloudy.8 mph87%30.12 "Hg10 mi
6:54 PM66 °FMostly cloudy.8 mph73%30.10 "Hg10 mi
5:54 PM66 °FOvercast.9 mph73%30.10 "Hg10 mi
4:54 PM67 °FMostly cloudy.7 mph73%30.09 "Hg10 mi
3:54 PM67 °FMostly cloudy.7 mph79%30.09 "Hg10 mi
2:54 PM68 °FPartly sunny.9 mph76%30.09 "Hg10 mi
1:59 PM67 °FMostly cloudy.8 mph79%30.11 "Hg10 mi
12:54 PM65 °FMostly cloudy.6 mph85%30.11 "Hg10 mi
11:54 AM64 °FMostly cloudy.7 mph87%30.11 "Hg10 mi
10:54 AM62 °FLow clouds.6 mph93%30.11 "Hg10 mi
9:54 AM60 °FLow clouds.7 mph93%30.11 "Hg10 mi
8:54 AM60 °FLow clouds.6 mph90%30.10 "Hg10 mi
7:54 AM58 °FMostly cloudy.9 mph97%30.10 "Hg10 mi
Weather by CustomWeather, © 2014

See weather overviewHow to use our weather pages